Tracking 19288 objects as of 20-Nov-2018
HD Live streaming from Space Station
objects crossing your sky now

COSMOS 683

Track COSMOS 683 now!
10-day predictions
COSMOS 683 is classified as:


NORAD ID: 7441
Int'l Code: 1974-072G
Perigee: 1,441.2 km
Apogee: 1,473.0 km
Inclination: 74.0 °
Period: 114.9 minutes
Semi major axis: 7828 km
RCS: 0.6438 m2 (medium)
Launch date: September 19, 1974
Source: Commonwealth of Independent States (former USSR) (CIS)
Launch site: PLESETSK MISSILE AND SPACE COMPLEX (PKMTR)
aabbcc
Your satellite tracking list
Your tracking list is empty




NASA's NSSDC Master Catalog

Two Line Element Set (TLE):
1  7441U 74072G   18323.95056281 -.00000032 +00000-0 -10175-3 0  9993
2  7441 074.0352 265.8778 0020319 161.9876 263.2000 12.53473267021023
Source of the keplerian elements: AFSPC